Theta_e
318 319 319 319 320 321 321 321 321 321 321 321 322 322 322 322 322 323 323 323 322 323 323 324 325 325 325 325 326 326 324 315 319 314 313 314 322 338 333 337 332 335 329 312 309 307 306 307 306 306 306 303 306 303 309 307 306 299 294 289 288 289 292 293 296 297 297 296 296 297 298 296 295 298 300 301 301 299 298 299 300 300 302 304 305 305 307 311
318 318 318 318 319 320 321 321 321 320 320 321 321 321 321 321 321 322 322 322 322 323 323 324 324 325 325 325 325 325 319 316 312 312 312 329 338 338 338 334 334 333 325 312 306 305 304 305 304 304 305 301 309 304 309 304 307 297 294 292 288 290 293 297 298 297 297 296 298 298 297 298 298 298 299 298 295 297 297 300 300 300 301 302 301 302 306 311
317 318 318 318 319 320 320 321 321 320 320 321 321 321 321 321 321 321 321 322 322 322 323 323 324 324 325 325 325 324 318 316 316 308 316 334 340 338 336 334 333 332 312 311 307 306 305 304 303 303 304 300 303 302 305 303 305 299 295 291 290 295 297 298 298 297 299 299 298 298 299 298 299 298 301 298 296 295 295 297 299 299 300 301 301 300 302 310
317 318 318 318 318 319 319 320 320 320 320 321 321 320 320 321 321 321 321 321 321 322 322 323 323 324 324 324 325 320 318 312 306 308 322 336 336 339 338 336 334 330 318 313 311 309 307 307 303 303 302 300 299 305 302 302 299 299 296 291 293 296 297 297 299 298 300 300 299 299 297 297 298 299 300 298 295 296 298 299 300 301 302 302 300 302 303 302
317 318 318 318 318 319 319 319 320 320 321 321 321 321 320 321 321 320 321 321 321 322 322 322 323 323 323 324 323 317 313 297 303 318 322 336 337 339 336 337 333 318 316 313 311 308 307 305 302 304 301 295 296 300 299 302 302 300 297 297 297 297 297 299 299 299 301 299 299 298 297 298 299 299 298 297 295 296 298 300 300 302 302 302 302 304 302 302
317 318 319 317 318 319 319 319 319 320 321 321 321 321 321 321 321 321 321 321 321 321 322 322 323 323 323 323 318 315 304 290 303 319 335 336 336 340 336 335 331 319 312 310 308 305 305 303 302 299 296 296 294 294 294 301 303 295 296 297 298 298 297 299 299 298 300 299 298 297 299 300 299 297 298 297 298 300 303 302 302 302 304 304 302 301 301 302
318 319 319 317 318 319 319 319 320 320 321 321 321 321 321 321 321 321 321 321 321 321 321 322 322 322 323 323 313 312 304 303 318 325 334 338 339 336 336 332 327 314 313 309 306 306 304 302 301 298 298 297 295 294 298 298 301 299 295 296 299 299 299 300 298 296 296 297 298 299 300 299 297 296 299 298 301 302 303 302 302 303 304 303 301 301 301 302
318 318 319 317 318 318 319 319 319 320 320 321 321 321 321 322 321 321 321 321 321 321 321 322 322 322 322 315 311 303 304 301 312 327 327 335 332 331 326 317 314 314 311 308 304 304 303 300 299 300 297 295 295 296 297 296 297 296 295 297 298 299 298 297 296 296 297 297 298 298 297 298 298 298 298 299 302 303 303 303 302 302 302 303 301 301 299 300
318 319 317 317 318 318 318 319 319 320 320 321 321 321 321 321 321 321 321 321 321 321 321 321 321 321 322 315 305 301 300 311 316 327 327 325 323 323 314 312 314 310 308 308 306 305 305 300 300 301 294 297 298 297 296 295 291 296 296 297 296 296 297 297 298 298 299 299 298 296 296 297 298 299 297 301 302 303 303 300 300 300 300 300 301 301 299 298
318 318 318 317 318 318 318 318 319 319 320 321 321 321 321 321 321 321 321 321 321 320 321 321 321 321 312 310 303 298 308 314 324 327 330 321 320 319 317 314 311 309 308 306 306 306 303 301 305 305 304 299 299 296 298 297 292 299 295 295 295 296 296 297 296 298 298 297 297 296 296 296 297 298 292 297 300 301 300 299 299 298 298 299 300 299 297 298
318 318 318 318 319 319 319 318 319 320 321 321 321 321 321 321 321 321 321 321 320 320 321 321 322 316 312 310 301 299 314 321 322 326 327 318 315 313 314 316 310 309 308 306 306 306 306 306 308 304 304 298 298 295 295 297 297 297 295 295 296 296 296 297 297 297 296 295 296 296 296 297 296 297 295 299 302 301 299 299 299 298 297 297 297 298 298 298
319 319 319 320 320 320 321 321 321 321 322 322 322 323 323 322 322 321 320 320 320 320 321 321 321 317 314 306 300 304 312 317 321 320 320 316 316 315 314 311 309 312 309 307 308 308 310 308 305 302 296 302 293 297 296 296 298 296 296 292 293 294 294 297 295 297 296 295 296 296 294 293 294 292 297 300 300 299 298 298 297 296 296 296 297 297 298 299
320 319 320 321 321 322 322 322 322 322 322 323 323 324 323 323 321 320 320 319 319 320 320 320 319 315 312 300 303 311 312 319 318 318 317 314 313 312 312 312 310 309 310 308 307 308 309 305 303 301 302 300 297 294 297 298 296 296 294 292 292 291 291 296 297 296 295 295 295 296 286 287 293 295 296 299 297 298 299 300 300 299 297 296 297 297 298 299
320 320 320 321 321 321 322 322 322 322 323 323 323 323 323 322 321 320 320 319 321 320 320 320 313 313 305 299 310 310 311 313 317 316 316 316 313 313 314 312 313 309 313 307 307 305 307 304 305 303 303 299 296 302 298 296 297 291 293 292 288 287 286 295 297 294 294 296 295 296 288 288 292 295 297 298 298 297 297 298 299 299 297 296 297 296 297 297
320 320 320 321 321 321 321 322 323 323 323 323 323 322 322 322 321 319 320 319 321 320 320 320 312 308 297 300 308 312 325 312 312 312 314 313 309 308 312 311 312 308 305 305 305 304 304 304 302 299 296 300 300 298 291 290 291 291 289 285 287 287 287 293 297 294 293 295 294 295 287 288 292 295 297 297 298 296 296 297 297 297 297 297 296 296 296 296
320 320 321 321 321 321 321 321 321 322 323 322 322 321 321 322 320 319 319 317 317 320 316 311 312 311 300 296 307 319 313 306 307 310 310 315 311 309 309 309 308 308 305 304 307 304 302 304 299 297 298 299 295 289 288 287 287 290 289 284 287 286 287 292 296 296 295 293 294 294 288 288 290 293 297 298 297 297 295 294 295 296 295 296 296 296 295 295
320 320 320 320 321 321 321 321 321 321 322 322 322 322 322 321 318 319 319 321 317 317 313 311 312 310 296 306 309 307 304 308 309 311 308 309 309 309 306 305 304 303 301 303 303 303 301 301 300 297 298 293 290 290 284 282 284 286 289 286 287 288 288 288 293 295 294 293 290 292 289 290 292 292 296 298 298 297 296 296 296 295 295 295 295 295 294 294
321 321 321 321 321 321 321 321 321 322 322 322 321 322 319 320 320 319 317 318 317 314 313 317 309 302 299 305 300 302 307 306 310 309 309 307 308 306 303 302 300 299 300 299 300 298 300 295 296 291 292 292 291 289 284 281 286 284 287 288 289 288 289 290 290 293 296 294 293 290 289 290 292 294 295 296 298 298 296 296 295 294 295 295 294 294 294 293
322 321 321 321 322 321 321 321 322 322 322 323 323 321 320 319 315 314 314 314 309 304 300 299 300 293 294 301 304 306 310 311 310 308 305 306 308 306 305 303 300 298 296 294 295 296 297 294 293 289 288 289 289 290 288 290 290 290 290 289 288 287 288 290 293 295 297 293 291 290 290 291 291 293 296 298 299 295 295 295 295 295 295 294 293 293 293 292
322 322 322 322 322 321 321 322 323 323 323 320 319 316 312 307 306 305 306 309 304 305 305 303 303 302 304 302 305 307 310 309 305 307 307 309 306 304 303 302 301 299 294 292 295 293 296 288 287 285 289 292 293 292 292 293 293 292 291 290 288 288 289 291 293 295 293 292 289 290 289 288 291 293 295 297 298 294 294 293 294 294 294 293 292 292 292 292
322 322 322 322 321 321 322 323 323 323 322 320 317 313 303 301 299 299 300 302 306 306 304 305 304 303 303 307 305 303 301 302 303 304 308 310 304 301 298 299 296 293 293 295 293 296 295 288 287 291 294 295 295 294 293 292 291 291 290 289 287 288 288 292 292 296 292 292 287 288 289 289 291 293 295 298 295 293 292 292 293 293 292 292 292 291 291 291
322 322 322 322 322 322 323 323 323 322 322 319 315 311 304 304 306 307 303 299 305 308 307 307 308 306 310 307 305 306 306 300 300 303 308 308 302 298 297 296 293 291 294 294 292 291 288 287 291 294 296 295 295 294 294 292 292 290 288 287 287 287 290 292 293 292 292 291 286 285 288 290 291 293 296 296 293 293 293 293 293 292 291 291 291 290 290 290
321 322 322 322 322 323 323 323 322 322 318 314 310 307 304 306 306 307 304 299 298 305 306 306 306 307 308 303 304 305 300 299 298 302 304 306 300 298 296 294 292 293 294 294 290 288 286 288 293 296 295 294 294 293 292 292 292 289 288 286 286 289 288 284 288 291 292 292 287 288 288 288 291 293 294 293 294 293 294 294 293 292 291 290 290 290 289 289
322 321 322 322 322 322 323 322 322 317 315 314 310 306 308 307 307 306 301 296 296 303 305 305 306 306 306 305 305 303 300 300 301 300 305 302 298 298 296 295 293 292 291 293 293 291 290 294 297 296 295 294 293 293 291 290 288 288 289 288 287 287 288 288 288 289 290 291 290 288 288 286 289 290 292 291 293 293 293 293 292 292 292 292 291 290 290 289
321 321 321 322 321 322 321 321 313 313 313 311 307 308 307 307 306 307 301 296 296 298 306 305 306 304 303 307 305 302 300 301 300 301 303 302 298 297 296 298 295 291 293 294 293 291 291 296 297 294 293 292 291 290 290 290 287 287 289 291 291 290 289 289 289 288 283 284 286 289 280 280 286 290 291 291 290 290 291 290 290 290 290 290 289 289 289 290
321 321 321 321 321 321 322 314 311 314 313 310 308 307 307 306 306 305 300 291 287 296 301 298 306 301 306 300 302 300 301 296 299 301 305 304 304 299 298 295 297 291 293 293 292 290 293 294 295 295 293 292 291 290 289 292 287 286 287 291 292 291 290 288 288 286 281 280 287 289 282 280 284 287 289 293 288 289 289 289 289 289 289 289 289 289 288 288
322 321 320 321 321 321 316 311 315 315 310 310 309 308 307 307 309 305 297 288 285 297 297 301 300 300 304 299 301 301 291 291 300 299 301 304 300 303 294 293 296 296 295 295 290 288 293 292 292 292 292 290 289 288 291 292 288 284 287 291 289 289 288 288 287 286 282 284 286 289 285 281 281 285 291 293 287 287 287 288 288 288 288 288 288 288 288 288
321 321 320 321 321 320 317 316 314 312 311 311 310 308 307 307 306 305 294 284 284 301 295 296 300 304 303 298 300 295 294 297 293 296 299 302 301 297 295 291 293 293 294 291 285 289 293 290 290 290 290 288 289 291 291 293 289 286 290 290 289 289 288 287 287 284 282 283 279 283 286 281 279 283 290 290 285 285 286 286 287 288 288 288 288 288 288 288
320 320 319 320 321 321 320 316 313 311 312 310 309 308 309 308 305 299 290 284 297 296 305 296 306 301 297 298 296 294 294 295 291 295 300 301 301 297 292 293 293 293 292 294 288 288 293 292 291 292 289 287 290 288 292 293 289 291 290 290 289 289 288 287 283 284 281 280 277 281 284 279 280 284 286 287 286 285 285 287 287 287 288 287 288 288 288 288
318 318 319 319 319 318 317 318 315 314 312 311 310 309 309 305 300 292 286 281 299 291 298 298 296 293 294 291 292 294 291 292 295 296 297 295 298 299 296 296 293 291 290 290 290 291 293 292 294 292 290 291 288 290 289 291 291 291 290 287 284 284 284 282 281 281 279 274 280 283 285 284 277 282 285 285 284 286 286 287 287 287 287 287 287 288 287 287
315 315 316 319 315 317 317 312 317 314 312 311 310 312 310 305 294 287 283 291 298 296 297 295 292 295 291 290 287 292 291 292 294 294 291 295 293 294 293 291 292 285 283 282 285 288 291 291 292 290 294 291 290 289 290 290 290 289 285 283 285 283 281 281 277 278 274 273 277 280 284 285 275 277 283 286 288 289 289 287 287 286 286 287 287 287 287 287
313 312 313 316 315 316 314 312 315 313 312 311 314 311 306 292 297 286 286 300 292 295 291 291 293 292 291 292 291 289 288 293 293 293 289 288 287 288 287 285 286 282 282 281 283 285 285 288 289 293 295 292 289 288 287 284 286 286 283 282 278 275 276 274 275 273 272 275 278 280 282 280 282 285 286 289 287 289 289 290 288 287 286 286 286 286 286 286
311 311 311 310 312 314 315 312 312 312 312 313 311 308 298 290 283 292 291 294 291 296 294 298 293 293 295 293 292 293 295 289 294 294 293 291 288 288 290 289 289 286 283 282 283 282 283 286 290 290 291 292 290 286 281 283 285 283 283 279 277 273 272 268 269 271 272 275 281 281 283 280 281 285 288 287 287 287 288 289 288 288 286 286 286 286 286 285
309 310 310 311 313 315 311 311 311 313 313 312 308 301 294 285 285 297 294 294 295 297 299 295 294 297 296 291 294 294 289 293 292 291 293 289 288 285 289 291 291 291 289 283 283 280 279 280 284 289 286 291 291 291 289 283 282 285 283 285 281 274 270 269 271 272 272 275 279 281 279 275 277 282 286 287 286 287 287 287 287 286 286 286 285 285 284 284
308 308 309 311 310 313 312 312 311 313 313 309 303 295 286 286 288 288 289 294 296 297 295 298 294 293 293 291 293 293 292 289 291 290 289 289 286 283 286 288 292 292 287 285 284 282 283 283 285 292 290 291 290 292 292 286 285 284 284 284 281 282 279 276 274 273 272 276 276 276 279 277 281 285 286 286 286 286 286 286 286 285 285 284 284 284 284 284
308 307 311 309 310 313 312 312 312 313 311 306 297 289 287 290 286 291 291 300 299 295 295 296 295 291 288 287 291 292 296 290 292 290 289 288 288 287 289 290 291 293 289 284 283 281 283 280 288 291 290 289 288 291 292 292 280 284 286 282 283 285 286 280 277 280 277 276 275 279 281 283 285 285 284 285 285 284 284 284 284 284 283 283 283 283 283 283
306 309 305 308 310 314 313 312 312 312 310 304 295 288 293 292 295 295 299 298 297 298 295 290 291 290 289 287 286 291 293 295 293 290 285 290 289 292 292 294 295 293 294 292 285 286 282 281 289 288 288 290 287 290 291 291 289 285 282 282 285 289 287 283 274 274 275 273 275 280 276 278 280 275 283 282 282 282 283 283 283 283 282 282 282 282 283 283
306 306 308 308 311 314 313 312 312 310 307 301 293 293 296 292 298 297 299 299 298 297 292 291 292 294 289 288 288 292 294 290 291 292 285 289 287 294 291 292 293 292 293 293 289 288 288 281 284 289 290 290 291 291 289 290 292 287 283 289 286 279 279 281 276 272 271 271 270 275 280 279 280 281 281 281 281 282 282 282 282 282 282 282 282 282 282 282
306 305 300 306 314 314 312 313 311 307 302 296 293 292 296 295 299 298 298 299 298 296 292 293 290 293 292 288 291 293 292 287 291 289 287 289 287 294 294 295 292 292 293 293 289 287 288 282 282 288 289 290 287 286 281 285 290 291 291 287 288 284 280 277 279 274 275 273 273 269 277 273 281 280 283 283 283 283 282 281 282 282 282 282 282 282 282 283
303 299 298 311 314 313 313 312 307 304 299 292 294 293 297 294 298 299 299 300 297 294 293 292 293 289 292 292 293 291 292 292 291 289 290 291 290 297 292 296 291 292 292 294 291 293 287 286 278 285 288 289 284 284 283 284 285 285 284 282 284 282 282 283 280 279 276 272 272 275 272 277 279 285 283 284 284 284 283 283 282 283 282 282 282 283 283 283
304 300 301 312 313 313 313 308 301 297 295 295 296 295 294 294 298 298 299 302 300 303 298 294 293 290 292 291 292 294 290 291 291 290 291 291 291 286 297 296 296 293 293 293 291 290 286 285 283 284 284 283 283 287 288 288 287 284 284 281 284 281 278 277 277 284 278 279 276 276 276 277 285 288 287 284 284 284 284 283 283 282 282 282 283 283 283 282
300 292 299 311 313 313 308 298 298 299 295 294 294 296 294 301 295 296 297 300 300 297 301 298 297 294 293 293 292 292 291 290 291 289 290 290 294 292 295 298 296 295 291 287 288 293 288 285 283 282 283 284 287 289 291 291 290 288 287 285 284 281 281 277 276 279 281 279 280 276 275 276 285 284 285 284 284 284 283 283 283 282 282 283 283 283 282 282
297 296 305 310 313 311 304 297 298 297 295 296 299 298 298 297 295 296 297 297 295 299 296 295 295 294 295 294 294 292 294 288 292 290 290 291 293 296 296 298 297 294 293 290 292 290 291 284 281 283 285 285 287 288 288 288 291 288 285 284 284 282 282 280 280 280 278 279 280 279 277 281 287 286 284 284 284 284 284 284 284 283 284 284 283 282 282 281
298 298 301 309 312 308 299 290 290 292 294 296 296 296 299 297 296 294 295 297 296 296 295 294 295 298 294 297 295 292 295 286 291 292 289 291 289 297 296 296 297 291 292 290 289 290 282 283 283 278 279 279 281 281 280 284 283 282 281 282 285 284 283 281 280 278 277 281 281 277 272 280 286 284 285 285 285 284 285 286 285 284 284 284 283 282 282 282
298 301 300 303 308 305 295 297 294 293 293 293 293 292 293 295 297 298 297 296 298 297 295 294 297 296 294 296 294 295 294 293 287 289 291 288 290 294 293 293 293 290 292 292 293 290 283 281 280 274 274 272 269 269 266 273 280 282 283 282 283 283 282 281 276 278 275 281 280 276 277 284 285 285 284 284 284 284 285 284 283 284 284 284 282 282 281 281
293 286 296 297 302 301 300 301 298 295 292 292 291 293 294 293 296 298 299 297 299 298 297 294 293 296 292 292 290 290 290 290 290 286 286 286 288 289 291 291 292 291 292 293 289 288 280 281 280 280 279 278 279 276 279 281 279 277 279 279 281 281 280 280 279 277 275 278 276 278 279 280 282 284 283 283 283 284 284 283 283 284 283 282 281 280 280 280
295 288 290 288 298 298 296 299 297 297 292 296 289 294 292 293 295 295 300 293 298 297 295 295 293 291 290 292 290 290 291 288 289 289 287 285 287 287 291 290 290 291 293 291 290 283 280 280 281 280 280 281 281 281 282 283 279 280 278 280 280 278 277 274 274 274 281 276 273 281 282 279 280 282 281 281 281 283 284 284 284 283 283 282 280 280 282 278
287 291 295 297 292 288 291 292 297 296 296 296 293 295 292 292 293 290 295 296 294 296 292 291 294 294 292 291 290 286 288 288 288 285 286 285 285 287 286 288 286 290 289 287 287 282 278 276 277 281 278 281 281 280 280 279 279 278 278 278 278 279 278 274 272 277 278 273 273 277 279 276 279 281 281 283 284 284 283 283 283 283 281 280 280 280 279 279
292 288 287 291 289 293 294 295 297 296 295 296 293 294 292 292 291 294 291 290 292 290 296 287 291 293 293 292 290 287 288 284 283 287 284 283 283 284 282 284 285 286 284 283 284 281 275 271 273 280 275 278 279 279 280 280 278 279 278 279 280 279 279 278 278 279 278 276 278 279 279 279 281 281 282 283 282 281 282 282 281 281 280 280 280 280 280 279
287 287 282 288 289 287 290 295 295 295 292 296 291 292 292 291 289 290 291 291 287 289 293 290 291 293 292 290 289 286 288 288 285 283 283 282 282 283 283 282 281 283 281 282 284 282 279 272 280 274 271 269 273 278 278 278 278 276 277 278 278 278 278 278 278 278 278 277 278 278 278 278 282 281 282 282 281 280 279 279 280 280 280 280 280 279 279 279
288 288 288 283 283 285 285 289 293 293 290 293 291 293 294 292 291 290 288 291 291 288 290 290 289 286 287 289 288 288 288 285 285 283 284 284 283 283 282 279 284 280 281 279 280 278 278 271 275 275 269 265 270 273 275 275 273 274 275 276 277 276 275 277 276 278 277 276 278 277 274 276 278 280 280 279 277 277 277 276 276 278 279 279 279 278 278 278
289 289 291 285 281 287 285 283 289 290 287 293 294 293 293 292 292 290 286 289 288 289 289 291 288 287 285 286 285 287 286 285 286 285 285 285 285 283 283 282 283 282 275 277 279 275 276 272 270 269 268 267 272 273 273 273 273 271 273 276 277 277 278 278 279 279 279 280 275 273 274 279 279 280 279 277 275 275 275 276 276 276 276 277 278 277 277 277
Wind_Speed
5 6 6 5 6 6 7 7 7 8 9 9 9 9 9 10 10 10 10 10 10 10 11 11 11 11 11 11 11 11 11 1 1 0 0 5 2 5 7 6 11 9 7 3 1 4 0 1 0 1 2 2 1 1 1 1 1 3 1 3 1 4 0 3 1 1 2 0 2 2 1 4 3 5 2 2 2 1 5 7 5 3 5 7 9 5 3 4
5 5 5 5 6 6 7 7 7 7 8 8 9 9 10 9 10 10 10 10 10 11 11 12 12 12 12 11 11 12 7 0 4 3 9 5 2 7 8 10 9 10 7 2 5 3 3 1 2 2 2 1 1 1 1 1 1 2 1 2 5 2 5 1 1 3 3 3 1 2 3 4 1 1 2 4 5 4 5 8 6 10 9 8 6 9 2 5
4 5 5 5 6 6 7 7 7 7 7 8 8 9 9 9 9 10 10 10 11 11 12 12 13 13 12 12 12 11 5 3 1 3 2 5 3 5 8 9 10 9 4 2 3 4 3 2 3 2 0 0 1 2 1 1 1 3 3 3 5 5 3 7 3 5 1 1 2 3 3 4 5 2 1 2 7 4 6 7 8 9 14 9 8 3 2 5
5 5 5 5 6 6 7 7 8 7 8 8 9 9 9 9 9 10 10 10 11 11 12 12 13 13 13 13 12 8 1 2 1 1 1 2 1 1 6 7 8 7 0 1 1 1 1 1 4 2 1 1 2 1 1 3 1 2 3 3 4 3 1 4 5 5 2 3 0 1 2 4 4 2 1 5 6 8 9 7 8 13 16 12 6 8 5 4
4 5 5 5 6 6 7 7 7 7 7 8 9 9 9 9 10 9 10 10 11 12 12 12 13 13 13 13 13 3 2 2 2 1 2 3 1 2 4 5 5 2 0 2 5 2 2 1 2 1 1 2 2 1 3 3 4 3 7 6 5 4 3 7 5 5 2 2 2 1 4 5 1 3 3 3 6 11 8 7 8 12 14 11 10 9 6 6
5 5 6 6 5 6 7 7 7 7 8 8 8 9 9 9 9 10 10 11 11 12 12 12 13 13 14 14 5 1 1 1 2 1 1 2 2 2 3 4 5 2 1 2 1 2 1 2 1 0 0 0 2 2 4 4 3 3 3 4 6 4 3 2 3 5 3 3 3 4 3 1 2 5 4 5 11 13 12 7 8 10 13 11 6 5 6 7
5 5 5 6 6 7 7 7 7 7 8 8 9 9 10 10 10 10 10 10 11 11 12 12 13 14 15 11 1 0 2 4 0 3 2 1 3 4 5 5 5 2 2 0 1 0 1 0 0 2 0 0 5 3 7 2 5 5 6 2 5 3 5 6 5 6 3 4 5 3 1 2 3 8 1 4 13 13 13 10 9 10 12 11 8 7 7 7
5 5 5 5 6 7 6 7 7 7 8 8 9 9 9 10 10 10 10 11 11 11 11 11 12 12 11 2 0 1 2 5 3 1 2 4 4 5 7 4 3 2 2 2 2 1 1 1 3 1 1 4 2 0 2 5 1 4 4 1 3 4 4 5 5 6 6 7 5 5 5 8 5 6 3 12 16 16 14 8 9 10 11 12 10 9 6 6
4 5 5 5 5 6 6 7 7 8 8 9 10 10 10 10 11 11 11 11 11 11 11 11 11 10 7 0 2 2 5 2 2 3 5 5 5 5 4 2 1 3 1 0 2 2 1 2 2 1 2 2 1 4 5 4 6 1 1 1 2 4 5 6 8 9 11 7 2 5 9 8 9 3 5 16 18 16 12 5 7 8 7 9 10 8 6 5
5 4 5 5 5 7 7 7 7 8 9 10 11 11 12 12 12 12 12 12 12 11 11 9 8 8 3 1 2 0 4 1 1 5 5 5 5 5 4 3 4 2 1 2 2 1 2 2 0 3 2 1 0 1 1 1 3 0 3 3 3 6 6 6 6 10 7 5 4 5 11 11 2 3 7 5 12 13 8 8 7 6 7 8 8 6 4 4
5 4 4 3 5 6 6 6 7 8 9 10 11 12 13 13 14 13 13 13 12 11 9 8 4 5 0 0 3 6 2 3 0 3 5 6 6 6 2 1 4 3 2 3 1 2 1 3 1 1 1 2 1 5 3 1 2 1 2 5 8 8 8 11 10 15 3 5 6 8 12 9 0 2 10 13 14 10 10 10 8 6 6 5 5 5 5 7
5 4 5 6 6 6 6 7 7 9 10 11 12 12 13 15 15 14 13 12 10 9 7 5 4 1 0 1 3 6 1 2 1 2 4 5 2 3 2 3 3 2 2 1 1 0 0 3 2 1 3 2 2 2 1 1 1 2 1 4 7 6 7 11 7 9 4 6 3 7 3 9 2 4 11 13 7 8 9 9 6 3 3 4 4 5 10 10
4 5 5 4 5 8 8 9 10 10 10 10 11 13 14 15 15 13 11 8 6 6 4 4 1 0 1 1 7 3 4 1 3 5 3 2 2 3 3 2 3 3 3 3 1 1 0 3 4 1 1 1 0 1 1 1 3 2 1 2 6 4 7 15 4 7 4 3 6 6 3 7 8 8 9 8 5 7 11 15 14 8 5 5 6 5 11 11
6 6 9 8 8 9 10 10 11 11 13 13 14 15 16 16 13 9 6 6 6 4 4 1 1 0 1 4 0 3 3 3 4 4 1 1 3 2 2 3 3 2 1 3 1 0 1 2 5 1 0 1 2 2 4 3 0 3 1 2 3 3 5 9 0 2 4 1 1 5 5 7 9 9 8 8 6 6 9 12 12 9 6 5 5 10 10 10
8 7 9 8 9 9 10 12 12 14 15 15 16 16 16 15 11 6 6 6 3 1 2 0 1 1 1 5 1 4 4 1 3 0 0 2 2 1 0 2 1 2 2 3 0 1 2 5 3 1 1 2 1 1 3 2 2 2 2 4 3 5 7 11 6 5 2 1 2 2 4 8 8 10 11 7 8 6 7 10 10 8 6 6 7 9 9 8
8 8 10 9 9 9 11 11 11 13 14 16 16 17 14 11 5 4 4 4 2 3 2 1 1 0 1 5 0 4 1 2 2 1 1 3 2 0 3 3 1 2 3 2 1 1 2 3 1 3 1 2 2 3 2 4 4 2 5 4 4 2 5 6 4 1 5 4 1 3 7 2 5 9 12 8 7 9 7 6 7 8 7 9 9 8 7 8
8 8 9 9 9 10 11 10 10 11 12 13 16 16 13 6 2 2 4 3 2 3 0 1 1 0 1 1 1 0 2 1 3 1 2 1 1 5 5 2 1 1 2 2 2 3 2 1 0 2 0 2 3 3 2 2 5 4 1 5 4 4 2 2 7 3 1 4 2 4 3 6 6 7 12 15 12 11 9 8 8 6 9 8 9 9 10 10
9 8 10 10 9 9 8 9 9 9 11 12 13 13 7 2 3 3 1 1 1 1 2 2 2 1 6 2 2 3 1 2 1 2 2 1 1 2 3 1 1 4 3 2 3 1 1 0 1 4 1 0 2 2 4 6 6 4 3 2 5 2 2 5 3 2 0 0 3 2 6 8 9 11 11 12 14 11 7 9 6 8 9 8 9 9 10 10
9 10 10 10 8 7 7 7 9 9 10 15 12 5 4 2 0 0 0 1 1 1 0 1 3 3 1 1 1 3 2 1 2 2 1 2 0 0 0 2 5 5 2 2 1 3 1 3 4 2 3 3 7 9 10 11 5 6 6 5 3 4 6 8 5 2 0 5 5 5 7 5 6 8 10 14 13 5 7 5 7 7 8 8 9 9 9 9
9 9 10 7 6 6 6 7 8 9 11 11 7 2 0 1 1 0 0 0 3 5 1 4 6 3 5 2 3 0 1 3 3 2 0 1 3 1 0 2 1 1 4 3 1 3 3 4 5 5 9 11 10 11 12 11 7 5 2 1 5 4 5 5 4 4 1 2 5 7 4 3 7 9 11 17 10 4 5 6 7 6 7 8 8 9 9 11
9 9 8 6 6 6 6 7 7 9 9 6 5 1 1 2 1 2 3 7 5 5 7 7 10 9 6 3 4 6 4 2 0 1 2 1 1 6 2 3 2 2 3 3 6 1 4 3 7 11 12 13 10 7 7 5 4 6 4 2 5 2 7 3 4 0 0 1 3 2 2 5 8 8 14 16 5 5 2 8 7 8 7 8 9 9 9 7
9 8 7 8 6 5 6 6 7 9 7 3 0 1 1 0 0 0 1 5 4 7 9 13 6 6 5 5 5 4 3 2 1 1 1 1 3 5 3 4 4 6 2 4 3 2 3 8 11 14 13 6 2 4 5 5 5 3 4 4 2 6 4 5 6 2 0 1 6 3 3 8 10 10 15 13 4 3 3 4 6 8 8 7 8 8 8 9
9 10 10 9 8 6 5 6 7 6 4 2 1 0 1 1 1 1 1 0 7 4 4 7 6 11 8 4 0 3 4 6 5 3 4 2 2 4 5 4 5 4 3 6 8 4 3 6 15 12 6 5 5 5 5 5 0 4 2 2 7 3 1 5 4 1 1 1 3 4 5 7 9 8 12 6 8 5 8 10 9 7 10 10 8 7 8 9
10 9 9 8 6 5 6 6 5 4 3 4 1 1 0 0 1 1 2 2 4 6 4 4 3 2 4 3 1 3 4 2 2 5 2 4 7 4 3 7 8 4 6 10 11 11 12 9 9 7 6 6 8 7 5 2 5 2 3 3 5 5 4 8 5 3 2 3 1 1 4 6 8 6 4 4 5 9 9 10 9 7 8 8 7 9 8 9
10 9 8 7 6 4 4 3 3 5 2 1 1 1 1 0 1 2 1 4 1 5 1 1 2 1 1 1 1 2 2 0 1 0 4 5 5 3 4 3 2 7 7 8 8 7 7 8 1 2 4 5 6 7 6 4 3 2 4 8 9 6 6 5 2 2 5 5 2 2 5 5 6 9 10 4 2 4 2 8 7 6 5 5 9 9 7 8
9 9 9 8 7 5 3 2 2 1 1 2 1 2 1 1 2 1 1 1 5 3 3 4 1 2 1 0 1 3 3 2 0 2 1 2 1 2 0 3 3 7 5 3 7 4 7 2 4 9 7 6 5 5 4 5 5 1 7 4 8 7 6 4 1 3 1 2 3 1 0 10 2 3 5 7 6 5 4 5 5 5 5 5 7 6 7 7
11 10 9 9 9 7 1 3 1 1 1 2 2 3 1 1 1 1 2 2 3 3 4 1 1 1 1 0 2 2 2 3 2 2 1 2 1 0 3 5 1 0 2 1 3 5 3 1 4 2 4 4 3 5 5 8 5 4 2 2 4 4 3 3 2 3 4 1 3 2 3 7 5 5 6 13 5 5 4 4 4 4 5 5 6 7 7 6
11 10 10 11 12 11 1 0 3 1 2 1 4 3 3 2 2 1 2 4 3 2 1 1 0 1 0 0 3 2 1 2 2 1 1 1 0 2 1 3 5 5 2 3 7 4 3 2 4 3 2 3 6 7 1 6 7 4 1 4 2 3 1 2 1 1 2 2 7 4 4 1 5 7 10 3 4 3 3 5 5 5 4 4 6 7 7 6
10 10 11 11 10 10 1 0 1 2 1 3 3 3 3 3 2 1 2 3 1 2 3 1 3 1 1 1 1 1 0 0 1 1 1 2 2 1 1 4 1 2 2 6 7 3 2 2 4 6 5 6 5 1 2 9 5 2 3 2 3 2 1 1 2 1 2 1 7 6 5 4 9 5 5 1 5 7 7 8 6 5 7 6 5 5 6 5
8 7 8 8 5 2 1 0 4 0 4 3 3 3 3 2 2 2 1 6 2 2 1 1 1 2 2 3 1 1 1 1 2 0 1 2 1 2 0 0 0 1 1 4 1 6 1 2 5 4 5 5 3 1 2 2 1 3 4 2 4 5 2 2 3 2 3 2 8 7 9 7 5 4 6 4 6 7 8 4 4 6 4 4 5 5 6 5
10 8 7 11 5 3 4 4 6 5 3 3 4 3 2 1 3 3 9 2 2 2 1 0 1 2 4 3 2 1 1 2 0 2 1 1 1 2 1 1 3 3 3 3 3 4 1 2 0 2 2 3 3 3 4 1 1 3 1 2 4 4 4 3 3 4 1 7 6 6 7 9 6 5 4 4 0 14 16 13 12 10 8 6 5 5 5 5
10 9 5 6 0 1 7 3 4 7 6 4 2 1 1 4 1 7 3 2 1 2 3 1 1 3 3 2 3 4 5 1 2 3 5 4 4 4 4 6 3 2 3 3 5 1 2 7 3 1 2 8 1 2 2 5 3 4 4 4 2 4 3 2 2 1 6 7 3 1 3 1 10 7 5 2 6 0 1 7 15 13 10 7 6 5 4 4
7 6 6 2 1 2 1 1 1 5 6 3 3 2 3 3 8 4 1 3 2 3 2 3 4 5 3 3 3 4 2 4 3 4 5 1 5 6 4 3 5 3 2 2 3 2 6 2 1 4 4 3 6 6 1 1 2 6 5 5 4 1 2 4 5 2 3 5 7 2 1 3 3 6 4 3 4 3 9 11 10 10 10 8 6 5 4 4
7 2 4 3 3 1 1 0 3 6 6 4 4 2 2 4 4 3 8 5 2 0 3 2 2 2 2 6 2 6 2 2 9 4 4 3 3 2 4 7 3 2 1 3 2 3 2 5 5 5 3 3 7 9 10 6 7 9 4 9 9 6 3 4 3 4 4 6 3 4 3 5 1 3 4 5 5 8 10 12 10 9 7 7 5 5 5 4
7 3 2 2 2 2 4 2 3 5 5 6 4 5 7 5 0 4 4 5 1 1 1 1 3 2 1 0 1 2 3 1 4 3 5 6 5 3 4 4 6 4 1 2 3 2 7 6 4 3 1 6 8 2 4 4 2 2 3 4 3 6 5 3 4 2 2 2 4 2 5 4 2 2 4 4 8 11 8 10 10 9 6 5 5 5 4 4
5 2 2 2 3 5 7 5 4 3 7 7 5 6 10 5 4 2 2 2 1 3 1 2 1 2 2 2 2 3 3 1 3 3 2 4 4 5 4 4 5 11 6 6 3 2 1 3 0 2 3 5 4 1 3 2 2 2 4 4 5 3 4 0 4 2 2 0 7 2 5 7 2 3 6 4 10 7 6 6 7 6 5 5 4 4 4 4
4 4 3 3 3 6 9 7 6 5 5 7 6 9 6 3 4 1 2 1 1 4 3 5 3 5 3 3 2 3 2 2 3 4 3 2 3 5 3 2 1 7 9 8 3 2 4 5 1 4 2 2 2 1 0 1 3 5 2 6 1 1 3 2 4 2 3 6 6 3 6 5 1 8 1 4 7 3 5 4 5 5 4 5 4 4 5 4
4 2 1 3 5 8 7 8 8 5 5 8 11 8 4 5 2 4 0 2 2 1 2 5 3 6 3 2 1 3 0 5 2 3 2 3 3 3 3 2 4 2 1 1 5 3 3 4 3 2 1 2 1 1 3 2 2 3 3 1 1 4 2 2 4 3 3 5 4 3 8 6 8 7 4 3 7 6 6 4 6 6 5 6 5 4 4 4
2 2 2 4 7 10 7 9 8 8 7 9 10 9 3 4 0 3 2 4 1 3 3 2 4 1 2 0 1 1 2 3 2 3 2 2 4 0 2 2 1 4 5 4 2 0 1 3 5 1 2 1 1 4 4 2 2 2 1 1 0 3 3 2 5 4 2 8 4 4 5 6 3 1 6 8 10 9 7 6 5 8 8 8 6 5 6 6
4 2 4 1 7 9 9 9 6 7 7 12 7 6 1 2 3 2 2 3 0 2 3 2 1 3 0 2 1 1 2 1 1 2 1 3 0 3 1 5 3 1 5 4 2 1 1 2 5 1 3 1 1 1 5 4 3 1 1 2 1 0 3 2 2 4 4 3 4 7 6 4 2 1 4 6 10 11 13 12 8 8 7 4 5 7 7 7
0 1 1 3 7 8 10 7 6 9 7 1 3 2 2 3 1 0 2 2 3 2 2 3 3 3 2 1 5 2 1 1 0 1 1 4 1 2 1 1 2 1 2 4 5 2 1 0 6 1 1 4 4 2 3 4 4 1 3 4 5 2 4 6 9 2 1 5 6 7 11 2 1 4 4 0 3 7 5 8 7 5 6 8 7 7 7 6
4 3 1 7 7 10 10 10 7 3 2 8 7 4 2 4 1 2 2 1 3 2 1 1 2 3 3 5 2 1 3 2 4 2 3 6 1 2 1 1 3 2 2 1 2 0 3 1 2 5 5 6 5 3 2 1 2 4 4 6 3 2 2 1 8 5 3 3 0 2 4 5 1 1 1 3 5 5 7 7 7 7 7 8 9 8 6 6
2 2 1 2 8 10 9 10 6 6 7 2 3 2 2 0 3 3 4 1 1 3 2 3 5 4 5 5 4 5 5 3 7 8 3 4 6 2 3 3 4 5 4 0 3 1 8 2 1 4 4 4 4 2 2 3 1 5 1 1 2 4 2 5 3 2 1 2 6 4 7 2 1 4 2 4 4 5 6 9 11 9 9 10 9 7 7 5
1 1 2 1 5 6 8 11 8 7 7 0 4 4 2 3 4 3 5 5 5 4 5 3 0 9 4 7 5 6 8 2 5 9 5 4 3 2 4 2 2 1 2 4 5 4 2 3 5 0 3 6 8 6 3 3 6 2 1 1 1 0 1 1 0 1 2 5 8 5 10 6 1 1 0 5 4 5 7 7 7 9 7 7 8 7 6 6
2 1 1 1 3 6 9 4 4 7 9 7 4 6 4 2 6 9 7 8 5 4 3 3 7 5 5 5 6 6 6 13 1 2 4 1 3 1 5 6 4 4 1 1 5 3 4 4 5 4 6 6 6 5 4 1 1 1 1 2 1 0 5 4 1 1 3 1 3 2 4 2 3 6 5 3 4 4 6 7 5 6 8 9 7 7 6 5
3 3 4 3 3 7 8 2 1 4 7 8 8 8 7 7 1 6 10 5 8 4 4 2 1 5 4 5 4 5 7 2 7 1 2 3 1 1 1 4 4 3 2 5 4 3 2 0 3 6 8 10 9 2 1 4 1 1 6 4 9 6 1 2 2 3 7 3 7 9 10 9 13 14 4 4 5 7 8 6 8 9 8 7 5 4 5 5
0 5 4 5 2 8 9 8 7 4 5 7 6 4 11 12 5 1 10 4 8 8 3 5 3 5 4 7 7 7 6 4 4 4 5 4 0 2 5 5 4 4 6 4 2 5 2 1 4 4 6 7 3 3 2 2 2 4 4 8 8 7 4 2 4 6 1 3 13 11 11 8 10 10 7 4 4 6 7 6 7 6 7 4 4 5 5 5
4 4 3 4 6 7 13 11 12 11 8 7 7 4 8 11 10 7 2 4 2 5 6 2 7 8 7 11 6 5 6 7 7 6 4 3 4 0 2 3 2 1 2 1 1 3 4 4 4 4 4 5 3 2 3 2 1 3 6 8 12 12 8 7 4 6 7 8 14 13 12 10 10 10 7 7 8 7 4 3 4 3 1 6 6 6 6 6
1 2 2 2 2 3 15 13 17 16 17 12 5 9 9 11 12 10 5 2 4 4 10 6 8 12 8 6 8 5 7 4 6 3 4 4 5 4 2 1 1 2 1 1 1 1 5 2 3 1 3 4 6 3 0 1 2 3 6 9 11 12 12 5 8 12 9 8 11 12 11 16 13 10 5 7 4 3 1 0 3 5 5 6 6 7 6 6
4 2 3 4 1 2 2 5 5 13 14 14 12 12 9 6 7 2 0 6 4 4 5 9 8 10 12 8 6 8 8 8 7 6 2 6 1 3 4 4 3 1 2 2 2 2 6 6 5 1 1 4 3 3 1 1 3 7 10 13 13 12 10 10 13 9 10 11 14 14 13 15 9 4 4 2 2 2 5 4 3 4 6 5 6 6 5 5
2 1 1 2 3 4 1 3 7 10 10 12 14 12 8 7 10 4 3 1 7 6 7 14 8 6 3 7 7 8 3 4 3 3 6 6 9 3 6 3 5 5 2 1 1 1 3 4 2 1 1 4 2 2 1 1 3 6 12 17 16 12 12 12 10 9 11 14 12 8 8 10 4 3 1 2 2 3 3 3 3 1 3 5 5 5 5 5
2 2 2 1 2 3 6 2 5 5 11 10 10 10 10 10 5 7 2 1 3 1 3 7 7 8 2 6 7 7 5 7 8 6 7 4 5 4 4 3 6 7 4 4 1 3 2 4 2 1 0 5 4 5 2 1 3 8 16 22 16 14 12 8 9 10 11 8 8 9 11 6 7 6 5 1 2 2 3 2 2 1 1 3 4 3 4 4
Wind_Direction
19 16 15 11 5 7 6 8 11 8 3 3 1 358 358 356 354 352 351 350 348 345 340 337 336 334 333 332 330 326 329 41 353 222 165 240 189 169 162 129 151 153 144 112 89 94 274 265 254 282 43 52 275 61 259 35 111 57 67 114 307 210 307 230 339 275 217 238 277 346 147 84 5 341 293 8 312 290 292 301 273 284 251 239 253 273 72 163
17 11 10 5 3 5 1 1 4 8 1 358 358 355 355 353 350 349 350 347 345 340 338 335 332 332 332 331 331 331 332 137 301 266 246 329 166 143 146 149 150 146 138 109 150 172 129 250 244 123 92 354 326 121 24 265 80 111 152 102 216 203 233 194 255 328 11 304 260 337 33 53 272 22 278 324 283 282 303 286 302 296 277 273 272 275 194 139
7 6 2 1 358 357 357 358 360 2 356 356 358 353 351 348 349 349 347 345 338 338 336 331 331 330 331 331 327 335 346 337 12 339 326 344 4 145 148 153 156 158 145 145 203 167 167 195 197 123 359 78 314 186 48 247 82 237 120 222 247 215 263 308 305 310 10 223 42 12 321 18 282 313 315 262 272 312 261 269 303 288 282 279 289 290 196 169
4 1 357 354 353 355 358 358 357 356 355 357 352 351 348 347 347 346 341 338 336 332 331 330 327 330 328 328 330 330 9 22 24 249 311 20 357 165 161 161 163 172 12 350 327 244 227 315 125 123 53 164 287 87 136 244 101 265 95 189 230 224 5 281 312 313 313 80 174 338 307 341 300 261 322 272 311 277 261 230 224 265 276 280 268 296 298 193
356 353 355 350 351 354 354 355 353 352 352 351 349 346 348 343 341 338 336 333 331 328 327 326 327 323 327 323 328 353 11 57 231 163 263 281 195 193 170 160 123 111 93 334 347 1 29 28 62 49 92 277 345 61 253 218 196 123 205 204 209 289 300 266 278 314 337 350 43 354 352 272 288 327 258 258 260 271 258 248 222 243 262 273 284 285 289 285
334 333 350 350 347 351 351 351 350 349 348 346 346 342 340 339 335 331 331 327 325 323 322 323 323 325 322 319 329 25 66 54 235 194 257 245 196 134 139 119 109 76 66 6 65 313 53 345 58 44 344 95 255 198 264 196 160 242 296 243 226 228 250 275 299 291 321 321 321 326 252 321 304 278 260 254 248 260 263 252 246 251 265 269 278 275 289 286
331 329 341 346 344 342 349 346 346 345 342 341 340 339 336 334 330 329 324 325 319 320 320 319 320 322 325 314 229 58 181 255 338 240 101 114 149 122 108 90 106 79 75 63 3 98 137 280 90 213 122 223 280 222 266 279 186 195 238 286 276 225 255 283 298 317 301 288 280 226 25 289 290 301 249 277 263 256 267 265 251 260 275 283 280 273 263 270
325 321 342 338 341 346 341 345 342 340 339 335 334 333 329 327 327 322 321 316 316 312 316 316 317 318 342 2 23 3 46 251 240 248 177 125 110 127 107 80 100 91 77 166 166 182 122 161 217 217 223 203 235 139 287 1 115 193 271 276 290 338 284 310 299 308 302 293 284 319 298 258 232 244 344 277 277 279 274 268 271 265 271 281 282 279 266 268
316 330 332 329 339 340 337 338 336 337 333 330 331 329 327 323 322 320 316 314 311 309 307 313 313 319 316 216 130 360 262 238 224 181 133 134 135 138 111 94 106 104 139 230 217 204 96 258 209 152 242 360 295 341 324 45 319 344 255 342 315 307 306 298 309 292 284 285 254 297 269 265 251 310 275 260 272 273 279 307 276 276 275 274 275 277 276 264
312 330 318 327 331 335 333 331 331 332 332 331 329 327 324 322 319 318 315 311 308 304 302 307 311 313 339 118 54 298 261 215 180 151 154 130 119 113 39 124 136 109 93 264 351 199 189 236 195 201 142 230 349 260 314 126 224 291 337 328 298 280 316 294 278 283 272 264 251 254 277 270 283 134 284 273 259 276 308 299 285 283 274 272 283 296 308 312
303 313 309 311 333 344 345 337 334 335 336 335 333 330 326 321 317 314 315 311 308 302 301 292 318 357 328 128 138 222 240 96 208 172 154 127 113 118 193 174 167 137 180 309 266 339 242 122 188 126 46 224 12 307 347 232 253 6 349 342 323 316 315 285 286 274 292 283 224 208 254 270 248 164 247 270 278 297 307 295 298 297 290 310 306 312 302 11
278 273 284 313 312 333 336 347 339 337 335 334 331 327 325 322 318 314 313 311 306 304 301 303 265 297 283 84 185 219 33 247 123 112 130 127 119 167 133 100 141 177 151 182 11 324 201 144 82 80 215 28 320 317 313 231 12 278 15 333 293 325 314 280 259 269 144 252 187 176 267 304 266 212 239 251 289 300 294 292 280 275 293 320 313 318 34 50
243 258 260 267 284 289 301 316 320 322 317 311 320 323 324 322 317 314 311 314 311 303 310 327 67 262 106 319 233 266 319 340 120 100 76 97 94 36 61 67 76 112 140 143 179 304 156 110 101 85 240 84 195 176 218 53 305 360 26 174 315 348 311 274 271 256 192 245 154 120 259 259 261 232 254 274 292 310 322 311 309 318 341 319 313 28 56 38
240 254 269 281 291 293 299 303 305 309 306 315 319 322 323 321 319 319 317 314 302 306 294 104 46 31 91 245 274 272 310 353 89 80 141 103 88 330 15 1 29 45 76 113 171 222 54 69 96 164 126 115 255 303 11 329 343 252 259 97 218 6 274 279 297 334 104 313 171 125 214 268 279 283 273 277 275 297 290 290 300 317 323 297 309 61 64 51
241 247 260 273 283 288 292 291 296 300 310 318 321 321 321 320 319 322 333 332 322 286 195 75 9 65 78 265 9 324 319 66 88 326 300 119 106 32 4 14 52 26 85 111 101 320 77 62 65 42 269 248 110 8 323 5 316 261 34 285 311 166 277 292 303 187 132 258 33 117 276 242 261 278 278 268 284 285 280 288 302 307 306 339 54 78 61 59
242 249 261 265 273 281 285 286 293 302 310 316 320 318 312 308 303 323 341 323 358 135 104 54 335 86 55 295 248 319 20 146 211 240 300 107 126 209 178 125 53 37 40 345 58 17 39 97 120 192 311 9 94 107 15 23 327 316 180 258 275 172 250 330 302 360 182 113 329 168 234 319 304 268 280 282 283 287 286 294 296 304 3 56 63 57 53 41
239 242 260 261 265 270 277 286 295 302 307 314 315 312 298 263 257 273 311 0 56 88 6 72 99 48 206 282 57 234 218 241 296 7 4 49 114 149 101 67 71 64 43 29 15 56 351 79 270 38 44 158 161 109 67 6 297 296 186 214 215 226 271 258 302 349 58 114 207 266 262 238 258 291 292 298 294 297 306 310 304 10 72 67 65 57 51 44
237 242 248 255 255 261 274 284 293 300 312 314 321 305 302 207 207 327 3 351 155 150 256 205 206 1 280 74 238 225 99 118 125 194 76 281 94 121 108 107 84 99 75 36 353 94 322 98 73 198 11 90 144 136 155 231 206 218 260 276 295 287 213 239 277 258 145 271 248 263 237 266 278 281 283 273 280 291 313 304 1 78 79 75 69 67 55 51
230 231 241 245 251 262 273 284 295 307 315 324 327 324 55 74 350 213 315 162 82 20 12 211 114 145 198 239 283 50 37 224 95 60 238 123 270 110 40 92 110 115 126 84 270 110 14 47 25 43 249 218 207 188 193 218 192 217 224 227 207 255 279 269 254 268 318 293 277 243 246 271 270 277 282 285 279 332 307 357 73 76 81 76 75 66 61 57
230 232 241 256 254 258 272 292 299 314 330 334 353 334 359 19 7 359 319 12 229 202 180 183 216 266 310 159 165 234 256 25 97 274 193 277 103 123 157 115 88 55 104 171 173 227 130 118 164 193 221 225 222 200 207 222 217 238 247 224 245 242 270 278 270 279 165 260 250 249 259 249 277 279 281 277 302 349 337 68 80 76 73 73 70 68 65 54
227 231 238 253 263 264 290 306 315 318 322 328 321 325 82 173 65 288 300 250 233 246 254 246 205 213 224 145 138 149 134 252 24 233 204 286 106 112 217 105 92 210 235 173 151 264 84 126 219 216 223 229 226 208 223 253 249 234 226 239 277 233 264 264 291 244 24 182 285 290 345 296 276 286 283 283 342 338 136 113 97 90 83 74 73 71 60 62
228 229 229 235 244 260 277 293 306 300 305 277 142 304 121 181 210 201 119 312 314 249 230 243 246 253 232 161 195 171 96 110 245 267 284 135 200 146 226 142 160 191 198 103 50 102 169 196 228 224 229 252 281 234 235 226 252 187 184 199 261 264 258 285 273 322 195 113 265 301 315 282 282 276 283 293 52 56 49 90 112 106 88 78 72 70 66 59
221 222 219 218 227 244 274 274 281 308 332 8 292 25 135 236 280 287 95 207 273 246 238 252 246 238 250 51 257 158 159 204 214 225 209 164 115 230 158 149 180 210 118 154 161 155 203 272 246 239 245 256 278 257 253 274 315 238 297 337 274 252 31 301 298 353 315 186 262 278 291 277 275 275 277 356 111 84 81 87 79 79 91 86 77 72 73 65
222 224 224 225 213 213 252 274 290 301 244 202 242 171 271 101 79 115 85 223 279 300 207 230 218 231 228 179 229 122 184 260 144 228 205 146 167 192 148 178 184 187 207 189 186 179 200 213 221 235 227 208 240 262 270 232 265 294 177 201 243 260 216 190 251 309 286 305 188 339 315 297 257 264 290 67 90 106 99 93 86 76 85 98 94 77 68 72
216 216 213 216 206 195 242 302 312 236 216 152 159 242 161 132 90 131 98 314 320 274 322 327 131 77 189 326 13 137 232 281 135 253 174 173 183 92 224 193 137 209 210 200 204 214 256 255 218 178 220 209 210 249 240 175 267 301 226 200 221 225 236 241 303 35 18 330 323 81 344 279 244 225 245 186 108 88 90 87 83 89 83 89 82 81 76 72
209 207 201 197 189 188 211 308 263 214 141 210 194 192 180 75 73 95 109 21 289 257 15 204 46 215 39 90 23 169 65 254 219 242 91 213 14 177 90 223 162 228 218 182 199 201 214 254 187 232 239 225 203 223 232 142 207 83 269 205 218 226 216 177 215 71 322 219 305 72 217 280 280 253 252 248 117 104 65 79 95 87 86 77 83 83 77 73
205 204 198 189 179 169 133 226 275 38 165 260 184 140 138 72 65 86 38 302 334 210 158 306 75 227 58 222 126 105 124 252 304 16 47 336 16 252 180 231 71 336 172 135 43 281 144 174 98 94 132 156 177 247 246 158 140 231 245 143 118 122 143 202 134 157 235 227 303 345 154 257 287 256 251 249 130 138 112 88 83 86 78 80 85 81 75 68
199 196 186 181 183 185 192 85 347 219 215 166 142 140 128 116 78 74 92 300 277 93 106 244 304 294 67 236 73 137 193 143 95 221 128 286 101 352 96 223 170 195 240 84 187 261 168 203 153 165 150 158 203 215 224 152 151 220 231 126 93 134 152 118 124 165 225 5 292 250 227 297 255 252 252 206 134 177 164 135 129 106 94 88 87 87 79 73
195 182 179 180 187 215 15 127 155 259 202 154 137 120 93 78 69 107 105 235 150 93 337 68 274 22 20 31 47 132 80 297 137 220 328 47 33 140 242 244 189 270 255 169 204 282 11 174 217 159 138 210 225 304 96 159 180 259 171 87 79 78 80 120 106 98 338 43 261 213 198 213 278 264 275 225 182 190 185 160 149 143 135 126 112 92 87 78
148 157 168 166 155 228 248 81 221 244 117 133 111 94 67 58 84 118 167 234 57 274 96 203 120 210 102 114 277 248 109 313 97 97 20 152 291 21 297 249 77 54 348 356 244 213 239 260 176 129 192 205 151 121 101 94 155 127 81 65 7 26 27 34 74 100 47 270 252 206 209 179 279 273 226 129 214 176 139 126 133 129 113 106 100 99 95 86
124 129 143 163 168 185 133 212 205 148 137 120 130 90 82 72 181 152 224 198 34 180 65 130 185 86 127 130 183 209 120 137 90 109 89 46 32 44 337 17 20 47 45 356 297 309 330 349 154 255 146 97 106 102 7 92 136 122 83 112 31 339 13 36 351 38 129 263 262 234 206 186 200 283 282 248 283 152 161 169 161 149 139 125 108 98 93 89
110 101 120 183 122 282 183 216 156 139 141 149 113 75 149 196 236 202 223 114 227 189 150 193 158 157 190 235 132 174 175 104 178 147 153 167 155 162 220 162 164 112 313 219 262 26 260 218 236 323 260 149 142 116 312 17 7 88 81 57 103 269 39 320 42 275 208 223 246 267 136 54 243 240 243 325 7 181 63 152 155 143 131 120 109 105 92 94
100 113 120 140 30 197 299 157 86 134 135 139 86 137 182 176 228 146 313 173 253 123 236 107 183 179 175 161 237 188 149 160 179 214 129 148 135 240 252 192 196 137 197 233 204 5 274 301 180 242 360 214 132 154 255 337 220 117 146 143 107 176 194 237 253 218 302 299 260 249 275 249 249 284 306 32 11 18 99 97 105 118 120 120 118 107 96 86
101 128 144 163 151 111 23 38 142 141 136 139 151 145 101 206 231 184 194 215 209 323 78 123 120 157 169 178 234 148 194 238 157 209 151 165 144 228 277 260 211 293 126 180 183 200 323 331 273 148 241 188 163 199 185 169 158 201 133 151 183 147 153 225 203 215 216 215 274 287 42 234 104 256 21 49 35 66 82 92 97 100 108 113 114 108 101 90
130 123 148 168 140 163 154 183 170 172 131 151 162 180 200 216 152 179 228 221 251 92 102 26 119 76 288 356 282 208 147 263 183 131 183 142 217 181 189 226 220 161 166 100 262 91 213 221 256 196 249 151 178 239 111 93 77 220 165 84 87 234 138 178 205 164 237 313 308 295 211 200 164 87 68 46 66 64 70 91 103 106 106 111 106 112 115 117
124 171 161 197 176 174 150 168 179 184 163 166 165 195 210 179 200 163 212 186 101 136 138 40 96 112 247 296 304 192 334 136 211 134 250 179 202 183 220 200 182 189 162 169 195 213 33 279 271 357 57 168 189 169 199 124 195 248 109 209 208 179 115 340 337 238 103 7 242 194 309 295 117 94 51 38 73 68 77 90 99 106 112 106 114 126 139 139
119 138 185 199 218 161 154 154 163 167 184 189 185 220 186 269 193 219 303 90 184 119 122 156 240 157 206 229 224 201 242 63 230 137 249 173 292 208 222 230 101 186 196 151 289 177 162 246 278 121 236 268 184 134 199 317 144 90 154 240 256 111 123 131 215 319 242 229 262 215 255 276 340 279 78 60 94 122 117 131 118 115 115 120 153 165 165 164
135 178 265 217 192 149 148 154 152 178 186 198 216 210 161 209 245 194 215 134 66 47 110 179 264 152 230 149 272 162 208 151 229 138 229 203 245 171 130 170 352 65 308 144 146 267 105 326 292 264 201 260 343 103 330 343 33 160 188 222 141 272 308 312 89 271 269 251 277 266 240 249 226 244 130 202 162 187 167 147 143 142 153 168 176 184 186 184
134 145 259 222 148 152 151 150 165 172 198 212 213 207 207 207 202 179 153 124 94 107 147 228 163 313 132 84 228 40 118 176 199 181 88 242 182 44 103 156 19 9 13 82 92 265 42 189 294 322 116 246 28 83 226 232 332 34 57 8 211 105 162 236 195 182 164 270 273 283 224 254 224 211 182 195 197 171 156 158 185 179 181 186 179 185 187 186
160 96 255 39 144 137 144 149 179 199 205 224 193 208 108 160 216 175 134 117 127 133 223 151 160 182 18 202 104 187 330 67 42 261 113 277 181 346 85 4 142 346 24 56 114 87 268 121 231 301 317 10 255 135 198 170 185 327 36 315 3 265 223 140 308 212 208 226 215 269 269 265 269 228 210 200 170 172 170 180 183 187 192 193 194 190 198 199
218 128 236 113 140 137 140 168 200 208 212 238 63 165 148 200 170 40 110 122 119 15 147 150 162 180 132 76 271 143 336 357 21 294 194 309 276 277 356 57 360 95 31 25 58 359 102 229 215 315 339 208 235 247 157 98 109 149 176 215 195 211 282 266 257 162 151 223 249 249 258 258 265 10 329 135 151 152 170 163 167 175 186 195 203 211 203 202
143 154 191 137 146 158 161 183 211 173 209 212 207 162 204 125 109 209 98 75 110 141 3 140 184 170 204 228 175 151 154 203 242 260 253 226 244 207 266 347 31 140 111 152 182 290 147 144 110 243 217 221 219 246 168 154 149 176 146 249 170 156 136 151 259 245 262 230 149 232 285 268 254 269 31 111 122 145 149 142 161 183 193 202 211 208 209 199
136 158 10 176 159 185 183 212 187 199 222 226 79 318 95 329 173 175 169 157 129 172 146 180 189 185 224 203 195 211 175 235 188 217 205 222 244 231 274 249 144 56 82 130 51 298 65 95 18 288 289 299 296 293 4 22 286 297 328 40 150 212 194 185 227 160 184 332 302 276 259 238 304 17 37 107 116 135 154 168 172 190 196 207 202 204 202 200
114 122 95 62 175 207 201 202 204 196 211 19 183 227 187 214 158 196 183 184 171 178 177 180 150 200 227 188 189 212 168 259 225 211 230 181 209 118 349 37 97 67 123 223 137 243 87 272 135 262 303 333 328 345 20 339 61 119 218 257 117 173 65 218 122 140 176 208 225 241 250 248 311 80 35 112 124 151 185 212 189 185 215 211 207 207 199 196
103 47 57 287 165 219 217 205 231 204 213 211 174 209 209 229 220 199 169 195 183 173 124 213 197 158 206 174 200 202 193 204 270 271 173 185 190 49 358 83 92 110 108 240 146 128 126 197 120 158 200 240 259 255 263 260 161 296 235 334 266 189 288 346 323 228 224 214 112 181 259 195 176 174 156 155 171 211 225 213 213 208 201 205 209 205 192 179
166 182 180 218 203 214 255 296 352 239 215 203 222 227 209 227 231 194 179 218 180 188 179 132 11 161 175 155 182 195 219 197 172 231 147 210 184 355 209 28 51 141 209 96 84 82 154 165 145 176 186 232 242 203 222 103 355 357 287 300 281 298 235 167 190 231 245 270 273 248 251 267 277 280 264 215 213 217 229 236 224 231 239 231 205 165 164 168
181 178 168 181 144 224 229 213 219 209 227 176 221 177 220 218 210 277 185 217 191 176 183 172 174 158 218 184 201 219 193 206 201 187 206 152 220 155 19 86 53 64 129 88 14 80 81 233 232 167 212 231 211 223 213 79 206 230 245 271 284 272 256 186 192 237 81 319 264 253 258 264 265 269 274 263 239 246 244 237 236 239 239 208 149 136 142 149
166 252 186 203 186 194 208 220 214 220 237 201 226 191 224 214 206 219 177 211 124 167 162 278 201 200 176 186 162 193 186 197 173 207 171 195 104 278 70 353 92 242 57 75 24 119 140 198 270 130 257 256 251 264 359 33 222 204 245 257 261 265 267 256 238 225 211 214 255 267 274 269 259 258 272 275 258 237 227 233 236 241 126 114 128 140 161 179
232 318 234 314 213 225 206 201 196 205 220 212 231 221 232 214 211 207 168 171 158 222 195 218 202 198 197 175 167 198 172 190 234 198 170 185 174 156 151 12 312 40 69 72 45 117 87 289 221 138 219 277 276 319 20 160 267 287 261 251 255 260 266 265 248 245 232 236 245 258 266 267 273 281 270 248 228 183 184 156 68 88 128 137 146 172 185 197
207 203 285 344 303 304 303 215 192 201 219 207 224 215 229 213 221 158 192 159 194 224 195 213 192 188 193 198 178 189 199 195 167 193 214 129 237 157 192 180 171 17 72 128 138 304 104 267 105 40 96 281 262 125 32 346 256 271 275 267 258 262 269 253 255 263 263 259 255 255 259 265 265 251 229 212 121 76 62 65 110 153 146 157 168 188 201 206
279 108 138 35 317 228 100 198 195 202 214 211 227 217 237 205 233 159 200 270 191 185 190 200 158 134 157 174 194 203 231 160 162 177 173 161 179 218 134 270 137 158 115 84 52 296 79 243 58 157 67 302 292 105 292 264 294 263 270 269 261 251 254 250 247 235 242 249 253 266 257 256 266 253 235 73 75 86 118 114 83 83 167 156 173 197 203 217
316 285 114 133 254 244 194 227 184 177 223 213 221 206 224 214 221 127 221 303 83 118 213 192 189 131 154 159 178 166 175 132 127 130 115 99 114 84 95 152 142 149 172 143 236 127 146 139 118 99 234 254 267 108 181 283 322 296 255 248 252 252 239 252 250 241 230 239 256 251 250 247 231 218 193 281 104 138 124 145 128 78 138 164 186 205 216 227